sat.trackr.live / text

‹ back to catalog

STARLINK-32605

NORAD 61921 · 2024-207K

PAYLOAD ACTIVE UNKNOWN

§ Identity

Operator
Country
US
Launch date
2024-11-11
Launch site
AFETR
Launch vehicle
Mass (kg)
RCS (m²)

Purposes: comms

External: N2YO · Heavens-Above · Gunter

§ Orbital elements

Epoch: 2026-05-25T04:30:56.032128Z

Period
94.27 min
Inclination
43.0015°
Eccentricity
0.0002536
Mean motion
15.27583551 rev/d
Perigee alt
481.3 km
Apogee alt
484.8 km
Semi-major
6,861.2 km
B*
4.5071e-4
RAAN
209.5343°
Arg perigee
273.7948°
Mean anomaly
86.2614°
Rev number
8,642

§ Raw data

STARLINK-326051 61921U 24207K   26145.18814852  .00012162  00000+0  45071-3 0  99902 61921  43.0015 209.5343 0002536 273.7948  86.2614 15.27583551 86425

JSON: /api/v1/satellites/61921 · /tle

For live sub-satellite position, see the globe view (requires WebGL).

§ Visibility from observer

Set your observer location to see the next 7 days of passes ≥ 10°. The values pass through the URL so the page stays shareable.

No JS? Fill the form by hand. The geolocation button needs JavaScript.